sat.trackr.live / text

‹ back to catalog

BRO-9

NORAD 56185 · 2023-054H

PAYLOAD ACTIVE UNKNOWN

§ Identity

Operator
Country
FR
Launch date
2023-04-15
Launch site
AFWTR
Launch vehicle
Mass (kg)
RCS (m²)

External: N2YO · Heavens-Above · Gunter

§ Orbital elements

Epoch: 2026-05-25T05:26:52.168416Z

Period
90.81 min
Inclination
97.2958°
Eccentricity
0.0007814
Mean motion
15.85756289 rev/d
Perigee alt
309.0 km
Apogee alt
319.4 km
Semi-major
6,692.3 km
B*
4.8217e-4
RAAN
61.9376°
Arg perigee
115.7398°
Mean anomaly
244.4680°
Rev number
17,543

§ Raw data

BRO-91 56185U 23054H   26145.22699269  .00118059  00000+0  48217-3 0  99902 56185  97.2958  61.9376 0007814 115.7398 244.4680 15.85756289175437

JSON: /api/v1/satellites/56185 · /tle

For live sub-satellite position, see the globe view (requires WebGL).

§ Visibility from observer

Set your observer location to see the next 7 days of passes ≥ 10°. The values pass through the URL so the page stays shareable.

No JS? Fill the form by hand. The geolocation button needs JavaScript.

§ Radio — SatNOGS DB

ModeDescriptionDownlinkUplink
BPSK Mode S - Transmitter 2.261 GHz
FSK AX.100 Mode 5 Mode U - FSK9k6 - TLM 401.735 MHz
FSK AX.100 Mode 5 Telemetry 401.642 MHz
FSK AX.100 Mode 5 Mode U - FSK4k8 - TLM (inactive) 401.735 MHz

4 transmitters · refreshed weekly from db.satnogs.org